Date String (YYYY-MM-DD hh:mm:ss) UTC,Instrument flags,Ambient pressure (hPa),Sample flow (lpm),Bypass flow (lpm),Sample temperature (°C),Ambient temperature (°C),ASC tube jacket temperature (°C),LED temperature (°C),Box temperature (°C),Sample RH (%),Span deviation,Mass concentration (μg/m³),Mass concentration (μg/m³),Mass concentration (μg/m³)
DateTimeUTC,F1_M11,P_M11,Q1_M11,Q2_M11,T1_M11,T2_M11,T3_M11,T4_M11,T5_M11,U1_M11,ZSPAN_M11,X0_M11,X2_M11,X1_M11
2021-12-15 09:00:00,,0810.6,5.00,0.00,25.8,25.0,00.0,34.8,27.6,08.8,0000.0,0011.46,0003.36,0002.05
2021-12-15 09:01:00,,0810.7,5.01,0.00,25.9,25.0,00.0,34.8,27.6,08.8,0000.0,0010.91,0003.29,0002.01
2021-12-15 09:02:00,,0810.6,4.98,0.00,25.9,25.0,00.0,34.8,27.6,08.9,0000.0,0010.07,0003.23,0001.97
2021-12-15 09:03:00,,0810.6,5.01,0.00,25.9,25.0,00.0,34.8,27.6,09.0,0000.0,0009.65,0003.13,0001.88
2021-12-15 09:04:00,,0810.6,5.00,0.00,25.8,25.0,00.0,34.8,27.5,09.1,0000.0,0009.08,0002.98,0001.79
2021-12-15 09:05:00,,0810.6,4.99,0.00,25.8,24.9,00.0,34.8,27.4,09.1,0000.0,0008.97,0002.85,0001.72
2021-12-15 09:06:00,,0810.5,5.01,0.00,25.7,24.9,00.0,34.8,27.4,09.1,0000.0,0009.26,0002.90,0001.71
2021-12-15 09:07:00,,0810.5,5.01,0.00,25.7,24.8,00.0,34.8,27.4,09.2,0000.0,0009.60,0002.94,0001.71
2021-12-15 09:08:00,,0810.5,4.98,0.00,25.7,24.8,00.0,34.8,27.4,09.3,0000.0,0010.03,0003.11,0001.78
2021-12-15 09:09:00,,0810.5,5.01,0.00,25.7,24.8,00.0,34.8,27.4,09.2,0000.0,0010.40,0003.18,0001.86
2021-12-15 09:10:00,,0810.5,5.00,0.00,25.6,24.8,00.0,34.7,27.3,09.4,0000.0,0010.61,0003.18,0001.95
2021-12-15 09:11:00,,0810.4,5.01,0.00,25.6,24.8,00.0,34.7,27.4,09.4,0000.0,0011.03,0003.31,0002.08
2021-12-15 09:12:00,,0810.3,4.99,0.00,25.6,24.8,00.0,34.7,27.4,09.4,0000.0,0011.21,0003.47,0002.25
2021-12-15 09:13:00,,0810.3,4.99,0.00,25.6,24.8,00.0,34.7,27.4,09.5,0000.0,0010.99,0003.51,0002.32
2021-12-15 09:14:00,,0810.3,5.02,0.00,25.6,24.8,00.0,34.7,27.4,09.5,0000.0,0011.04,0003.59,0002.41
2021-12-15 09:15:00,,0810.4,4.99,0.00,25.6,24.8,00.0,34.7,27.4,09.5,0000.0,0011.93,0003.73,0002.54
2021-12-15 09:16:00,,0810.3,5.00,0.00,25.6,24.8,00.0,34.7,27.4,09.6,0000.0,0012.50,0003.85,0002.64
2021-12-15 09:17:00,,0810.3,5.01,0.00,25.6,24.8,00.0,34.7,27.4,09.7,0000.0,0012.48,0003.85,0002.68
2021-12-15 09:18:00,,0810.3,4.99,0.00,25.6,24.8,00.0,34.7,27.3,09.7,0000.0,0012.32,0003.88,0002.69
2021-12-15 09:19:00,,0810.2,5.01,0.00,25.6,24.8,00.0,34.7,27.3,09.7,0000.0,0012.21,0003.80,0002.64
2021-12-15 09:20:00,,0810.2,4.98,0.00,25.6,24.7,00.0,34.6,27.3,09.7,0000.0,0011.48,0003.69,0002.55
2021-12-15 09:21:00,,0810.2,5.00,0.00,25.5,24.7,00.0,34.6,27.3,09.7,0000.0,0011.03,0003.64,0002.45
2021-12-15 09:22:00,,0810.2,5.00,0.00,25.5,24.7,00.0,34.6,27.2,09.8,0000.0,0010.23,0003.52,0002.35
2021-12-15 09:23:00,,0810.3,5.01,0.00,25.5,24.7,00.0,34.6,27.2,09.9,0000.0,0009.23,0003.31,0002.15
2021-12-15 09:24:00,,0810.2,4.99,0.00,25.5,24.6,00.0,34.6,27.2,09.9,0000.0,0009.83,0003.23,0002.04
2021-12-15 09:25:00,,0810.2,5.02,0.00,25.5,24.6,00.0,34.6,27.2,09.9,0000.0,0010.28,0003.21,0001.97
2021-12-15 09:26:00,,0810.2,4.99,0.00,25.4,24.6,00.0,34.5,27.1,09.9,0000.0,0009.81,0003.18,0001.91
2021-12-15 09:27:00,,0810.1,4.99,0.00,25.4,24.6,00.0,34.5,27.1,09.8,0000.0,0009.54,0003.16,0001.93
2021-12-15 09:28:00,,0810.1,4.99,0.00,25.4,24.6,00.0,34.5,27.1,09.8,0000.0,0009.85,0003.22,0001.98
2021-12-15 09:29:00,,0810.2,5.02,0.00,25.4,24.6,00.0,34.5,27.1,09.8,0000.0,0009.68,0003.24,0002.01
2021-12-15 09:30:00,,0810.1,4.99,0.00,25.4,24.6,00.0,34.5,27.1,09.8,0000.0,0009.48,0003.34,0002.08
2021-12-15 09:31:00,,0810.1,5.00,0.00,25.4,24.6,00.0,34.5,27.1,09.9,0000.0,0009.61,0003.44,0002.17
2021-12-15 09:32:00,,0810.0,5.01,0.00,25.4,24.6,00.0,34.5,27.1,09.9,0000.0,0009.69,0003.48,0002.22
2021-12-15 09:33:00,,0810.0,5.00,0.00,25.4,24.6,00.0,34.5,27.1,10.0,0000.0,0009.88,0003.53,0002.25
2021-12-15 09:34:00,,0810.0,4.99,0.00,25.4,24.6,00.0,34.5,27.1,09.9,0000.0,0009.97,0003.60,0002.34
2021-12-15 09:35:00,,0810.0,4.99,0.00,25.4,24.6,00.0,34.4,27.1,10.0,0000.0,0009.49,0003.68,0002.42
2021-12-15 09:36:00,,0809.9,5.00,0.00,25.4,24.6,00.0,34.4,27.1,10.0,0000.0,0009.23,0003.71,0002.50
2021-12-15 09:37:00,,0809.9,5.01,0.00,25.4,24.6,00.0,34.4,27.1,09.9,0000.0,0009.53,0003.75,0002.56
2021-12-15 09:38:00,,0809.9,5.00,0.00,25.4,24.6,00.0,34.4,27.1,09.9,0000.0,0009.26,0003.80,0002.61
2021-12-15 09:39:00,,0809.9,4.99,0.00,25.4,24.6,00.0,34.4,27.1,09.8,0000.0,0009.26,0003.86,0002.64
2021-12-15 09:40:00,,0809.9,5.00,0.00,25.4,24.6,00.0,34.4,27.1,10.0,0000.0,0009.37,0003.90,0002.67
2021-12-15 09:41:00,,0809.9,5.01,0.00,25.4,24.6,00.0,34.4,27.1,09.9,0000.0,0010.44,0003.91,0002.67
2021-12-15 09:42:00,,0809.9,4.99,0.00,25.4,24.6,00.0,34.4,27.1,10.0,0000.0,0010.70,0003.90,0002.66
2021-12-15 09:43:00,,0809.9,5.02,0.00,25.4,24.6,00.0,34.4,27.1,09.9,0000.0,0011.38,0003.94,0002.69
2021-12-15 09:44:00,,0809.9,5.00,0.00,25.3,24.6,00.0,34.4,27.1,10.2,0000.0,0012.11,0003.93,0002.69
2021-12-15 09:45:00,,0809.9,5.00,0.00,25.3,24.6,00.0,34.4,27.1,10.2,0000.0,0012.70,0003.90,0002.65
2021-12-15 09:46:00,,0809.7,5.00,0.00,25.3,24.6,00.0,34.4,27.1,10.1,0000.0,0013.04,0003.90,0002.63
2021-12-15 09:47:00,,0809.7,5.01,0.00,25.3,24.6,00.0,34.4,27.1,10.1,0000.0,0013.67,0003.95,0002.62
2021-12-15 09:48:00,,0809.8,5.00,0.00,25.3,24.6,00.0,34.4,27.0,10.1,0000.0,0013.65,0003.99,0002.61
2021-12-15 09:49:00,,0809.7,5.00,0.00,25.3,24.5,00.0,34.4,27.0,10.2,0000.0,0013.63,0003.93,0002.54
2021-12-15 09:50:00,,0809.6,5.01,0.00,25.3,24.5,00.0,34.4,27.0,10.4,0000.0,0013.58,0003.84,0002.45
2021-12-15 09:51:00,,0809.6,5.00,0.00,25.3,24.5,00.0,34.3,27.0,10.5,0000.0,0013.19,0003.74,0002.34
2021-12-15 09:52:00,,0809.5,5.00,0.00,25.2,24.5,00.0,34.3,26.9,10.5,0000.0,0011.96,0003.59,0002.22
2021-12-15 09:53:00,,0809.5,4.99,0.00,25.2,24.4,00.0,34.3,26.9,10.5,0000.0,0011.96,0003.46,0002.12
2021-12-15 09:54:00,,0809.5,5.01,0.00,25.2,24.4,00.0,34.3,26.8,10.6,0000.0,0011.13,0003.35,0001.99
2021-12-15 09:55:00,,0809.5,5.00,0.00,25.1,24.3,00.0,34.3,26.8,10.7,0000.0,0011.10,0003.30,0001.90
2021-12-15 09:56:00,,0809.5,5.00,0.00,25.1,24.3,00.0,34.3,26.8,10.9,0000.0,0010.95,0003.19,0001.79
2021-12-15 09:57:00,,0809.5,5.01,0.00,25.1,24.3,00.0,34.2,26.8,11.0,0000.0,0010.36,0002.94,0001.64
2021-12-15 09:58:00,,0809.5,5.00,0.00,25.0,24.2,00.0,34.2,26.7,10.9,0000.0,0009.72,0002.71,0001.50
2021-12-15 09:59:00,,0809.4,4.99,0.00,25.0,24.2,00.0,34.2,26.6,10.8,0000.0,0009.20,0002.41,0001.40
